铱星星座 24星 (IRIDIUM 24)

导读

IRIDIUM 24(铱星24)是美国摩托罗拉公司研制的低轨通信卫星,于1997年12月20日发射入轨,属于初代铱星星座组网卫星。它运行在约677公里高度的极轨轨道,是全球首个实现星间链路的低轨卫星通信系统组成部分,可支持不依赖地面转接的全球移动通信,填补偏远地区、海洋等区域通信空白,单星可形成48个通信蜂窝区,为全球卫星通信发展奠定技术基础。

基本信息
目录编号:
25105
目录名称:
IRIDIUM 24
国际标识:
1997-082B
轨道中心:
EARTH
卫星名称:
铱星星座 24星
卫星全名:
铱星星座 24星 (IRIDIUM 24)
卫星状态:
在轨 (已飞行10401 天)
发射日期:
1997-12-20 UTC
国别 :
美国 (US)
星等 :
--
轨道信息
数据来源 国际轨道数据
星历时间: 2026-06-12T15:23:51+0800
12小时前
查看轨道信息
半长轴: 7128.322km
偏心率: 0.0010137
轨道倾角: 86.390°
近地点辐角 338.214°
升交点赤经 287.500°
平近点角 21.863°
近地点: 742.959km
远地点: 757.411km
周期: 99.825分钟
每日圈数: 14.4252
详细信息
平衡模式:
三轴稳定
覆盖范围:
全球
运营商:
铱星通信公司
运营商所在国:
美国
使用方式:
暂无
卫星简介
铱星(Iridium)是由共66个运作中的通信卫星组成的卫星通信系统。这个系统原本规划77个通信卫星,所以用原子序数为77的铱元素来命名。铱卫星允许人们使用手持型电子设备进行全球性的语音及数据通讯。该卫星已退役。
2D轨道图
3D轨道图
轨道高度分析图
轨道倾角分析图
轨道综合分析图
查看轨道综合分析图